Location: Unspecified
(43.1763°N, 79.4719°W)
Time: 22:25:25
(UTC-04:00)

Okean 3 - Visible Passes

Search period start: 25 September 2018 00:00
Search period end: 05 October 2018 00:00
Orbit: 576 x 603 km, 82.5° (Epoch: 24 September)

Date Brightness Start Highest point End Pass type
(mag) Time Alt. Az. Time Alt. Az. Time Alt. Az.
25 Sep 3.6 05:04:15 42° SSE 05:05:35 70° E 05:09:47 10° NNE visible
25 Sep 5.5 06:42:25 10° W 06:43:20 11° WNW 06:44:15 10° NW visible
26 Sep 3.3 05:13:06 65° SW 05:13:37 77° W 05:17:50 10° N visible
27 Sep 6.4 03:45:15 13° E 03:45:15 13° E 03:46:58 10° NE visible
27 Sep 3.6 05:21:50 50° WNW 05:21:50 50° WNW 05:25:48 10° N visible
28 Sep 6.1 03:53:56 18° ENE 03:53:56 18° ENE 03:55:50 10° NE visible
28 Sep 4.3 05:30:30 31° NW 05:30:30 31° NW 05:33:38 10° N visible
29 Sep 5.9 04:02:31 20° NE 04:02:31 20° NE 04:04:19 10° NNE visible
29 Sep 5.0 05:39:06 21° NW 05:39:06 21° NW 05:41:20 10° NNW visible
30 Sep 5.8 04:11:04 21° NNE 04:11:04 21° NNE 04:12:37 10° NNE visible
30 Sep 5.4 05:47:37 14° NW 05:47:37 14° NW 05:48:47 10° NNW visible
01 Oct 5.8 04:19:33 19° NNE 04:19:33 19° NNE 04:20:47 10° NNE visible
02 Oct 5.9 04:27:59 16° N 04:27:59 16° N 04:28:51 10° N visible
03 Oct 6.1 04:36:24 13° N 04:36:24 13° N 04:36:49 10° N visible
